Regional Weather Roundup
Issued by NWS

Home | Current Version | Previous Version | Text Only | Print | Product List | Glossary On
Versions: 1 2 3 4 5 6 7 8 9 10 11 12 13 14 15 16 17 18 19 20 21 22 23 24 25 26 27 28 29 30 31 32 33 34 35 36 37 38 39 40 41 42 43 44 45 46 47 48 49 50
000
ASUS43 KLMK 010010
RWRKY
KENTUCKY REGIONAL WEATHER ROUNDUP
NATIONAL WEATHER SERVICE LOUISVILLE KY
800 PM EDT FRI JUL 31 2015

NOTE "FAIR" INDICATES FEW OR NO CLOUDS BELOW 12,000 FEET
WITH NO SIGNIFICANT WEATHER AND/OR OBSTRUCTIONS TO VISIBILITY.

KYZ001>023-026-027-061>063-070>075-010100-
WESTERN AND SOUTH CENTRAL KENTUCKY

CITY           SKY/WX    TMP DP  RH WIND       PRES   REMARKS
PADUCAH        SUNNY     87  68  52 NW3       30.00F HX  90
HENDERSON      SUNNY     86  70  58 W5        29.99S HX  90
OWENSBORO      SUNNY     87  70  57 W6        30.00F HX  92
HOPKINSVILLE   SUNNY     84  67  57 NW5       30.01F
BOWLING GREEN  CLEAR     86  59  39 N6        30.02R
GLASGOW        CLEAR    N/A N/A N/A CALM      30.02R
$$

KYZ024-025-028>034-038-045-046-053-010100-
NORTH CENTRAL KENTUCKY

CITY           SKY/WX    TMP DP  RH WIND       PRES   REMARKS
LOUISVILLE/SDF PTCLDY    86  56  35 W9        29.98S
LOUISVILLE/LOU CLEAR     87  54  32 NW7       29.99S
FORT KNOX      CLEAR     82  64  55 W3        29.99S
$$

KYZ035>037-039>044-047>052-055>060-089>105-010100-
NORTHEAST KENTUCKY

CITY           SKY/WX    TMP DP  RH WIND       PRES   REMARKS
LEXINGTON      CLEAR     82  61  48 W5        30.01R
COVINGTON      PTCLDY    82  59  45 W5        29.97S
FRANKFORT      CLEAR     83  59  44 W3        29.99S
$$

KYZ054-064>069-076>088-106>120-010100-
SOUTHEAST KENTUCKY

CITY           SKY/WX    TMP DP  RH WIND       PRES   REMARKS
JACKSON        CLEAR     80  58  46 W3        30.02R
LONDON         CLEAR     83  55  38 NW5       30.03R
SOMERSET       CLEAR     81  57  44 W3        30.04R
MIDDLESBORO    CLEAR     80  64  59 W3        30.03R
MONTICELLO     CLEAR     81  72  74 CALM      30.05S
$$



USA.gov is the U.S. government's official web portal to all federal, state and local government web resources and services.